Location: *
(58.4167°N, 22.5000°E)
Time: 20:13:32
(UTC+00:00)

Cosmos 1741 Rocket - Pass Details

Date: 22 September 2019
Orbit: 761 x 783 km, 74.0° (Epoch: 15 October)

Event Time Altitude Azimuth Distance (km) Brightness Sun altitude
Rises 17:38:18 0° 328° (NNW) 3,286 8.1 -9.6°
Reaches altitude 10° 17:40:45 10° 332° (NNW) 2,355 7.2 -9.9°
Maximum altitude 17:46:03 60° 53° (NE) 903 4.2 -10.5°
Enters shadow 17:50:51 12° 132° (SE) 2,170 5.8 -11.1°
